Home > Weather > Caen > Past weeks

Flag for France Past Weather in Caen, Lower Normandy, France — Yesterday and Last 2 Weeks

Now
55 °F

Light rain. Partly sunny.


Feels Like: 52 °F
Forecast: 55 / 67 °F
Wind: 12 mph from Northwest

Location: Caen Airport

Current Time: Jun 25, 2016 at 12:33:49 PM

Latest Report: Jun 25, 2016 at 12:00 PM


Visibility: 6 mi

Pressure: 30.09 "Hg

Humidity: 82%

Dew Point: 50 °F

Location of CaenLocation

Past Weather in Caen — Graph

°F

Caen Temperature Yesterday

Maximum temperature yesterday: 68 °F (at 2:00 PM)
Minimum temperature yesterday: 54 °F (at 6:00 AM)
Average temperature yesterday: 62 °F

High & Low Weather Summary for the Past Weeks

 TemperatureHumidityPressure
High81 °F (Jun 22, 2:30 PM)100% (Jun 11, 5:30 AM)30.33 "Hg (Jun 11, 5:30 AM)
Low48 °F (Jun 16, 5:30 AM)52% (Jun 15, 6:00 PM)29.47 "Hg (Jun 15, 1:30 AM)
Average61 °F85%29.90 "Hg
* Reported Jun 10 11:00 AM — Jun 25 11:30 AM, Caen, Weather by CustomWeather, © 2016

Note: Actual official high and low records may vary slightly from our data, if they occured in-between our weather recording intervals... More about our weather records

Advertising

Caen Weather History for the Previous 24 Hours

Scroll right to see more
 ConditionsComfort  
Time TempWeatherWind HumidityBarometerVisibility
11:30 AM
Sat, Jun 25
63 °FBroken clouds.8 mph68%30.09 "HgN/A
11:00 AM63 °FMore clouds than sun.9 mph68%30.09 "HgN/A
10:30 AM63 °FScattered clouds.9 mph73%30.09 "HgN/A
10:00 AM61 °FOvercast.12 mph77%30.09 "HgN/A
9:30 AM61 °FMostly cloudy.12 mph77%30.09 "HgN/A
9:00 AM59 °FMostly cloudy.12 mph82%30.09 "HgN/A
8:30 AM59 °FLow clouds.7 mph88%30.09 "HgN/A
8:00 AM57 °FPartly sunny.3 mph94%30.09 "HgN/A
7:30 AM55 °FMostly cloudy.5 mph94%30.09 "HgN/A
7:00 AM54 °FSunny.3 mph100%30.09 "Hg10 mi
6:30 AM54 °FClear.6 mph94%30.09 "Hg10 mi
6:00 AM54 °FClear.9 mph94%30.09 "Hg10 mi
5:30 AM55 °FPassing clouds.8 mph94%30.09 "HgN/A
5:00 AM55 °FClear.7 mph94%30.09 "Hg10 mi
4:30 AM55 °FClear.7 mph94%30.09 "Hg10 mi
4:00 AM55 °FClear.3 mph94%30.09 "Hg10 mi
3:30 AM55 °FClear.5 mph94%30.09 "Hg10 mi
3:00 AM55 °FPassing clouds.5 mph94%30.09 "HgN/A
2:30 AM54 °FClear.5 mph100%30.12 "Hg10 mi
2:00 AM55 °FClear.6 mph94%30.12 "Hg10 mi
1:30 AM54 °FClear.5 mph94%30.12 "Hg10 mi
1:00 AM54 °FClear.3 mph94%30.12 "Hg10 mi
12:30 AM55 °FClear.5 mph88%30.12 "Hg10 mi
12:00 AM55 °FClear.2 mph94%30.12 "Hg10 mi
11:30 PM
Fri, Jun 24
55 °FClear.3 mph94%30.12 "Hg10 mi
11:00 PM57 °FSunny.6 mph88%30.12 "Hg10 mi
10:30 PM57 °FSunny.8 mph88%30.12 "Hg10 mi
10:00 PM59 °FSunny.5 mph82%30.12 "Hg10 mi
9:30 PM61 °FSunny.6 mph83%30.12 "Hg10 mi
9:00 PM63 °FPartly sunny.6 mph77%30.12 "HgN/A
8:30 PM64 °FBroken clouds.5 mph68%30.12 "HgN/A
8:00 PM64 °FPartly sunny.8 mph68%30.12 "HgN/A
7:30 PM64 °FSunny.9 mph68%30.12 "Hg10 mi
7:00 PM64 °FSunny.10 mph68%30.12 "Hg10 mi
6:30 PM66 °FPassing clouds.13 mph68%30.12 "HgN/A
6:00 PM68 °FPartly sunny.12 mph64%30.12 "HgN/A
5:30 PM68 °FPassing clouds.10 mph69%30.12 "HgN/A
5:00 PM68 °FCloudy.12 mph64%30.12 "HgN/A
4:30 PM68 °FMostly cloudy.12 mph64%30.12 "HgN/A
4:00 PM68 °FMostly cloudy.8 mph64%30.12 "HgN/A
3:30 PM68 °FPartly sunny.7 mph64%30.12 "HgN/A
3:00 PM68 °FOvercast.6 mph69%30.15 "HgN/A
2:30 PM68 °FOvercast.6 mph64%30.15 "HgN/A
2:00 PM68 °FPartly sunny.6 mph69%30.15 "HgN/A
1:30 PM66 °FPartly sunny.6 mph68%30.15 "HgN/A
1:00 PM66 °FOvercast.5 mph68%30.15 "HgN/A
12:30 PM66 °FOvercast.5 mph68%30.15 "HgN/A
12:00 PM64 °FOvercast.9 mph73%30.15 "HgN/A
Weather by CustomWeather, © 2016

See weather overviewHow to use our weather pages